TimeEEST,TemperatureF,Dew PointF,Humidity,Sea Level PressureIn,VisibilityMPH,Wind Direction,Wind SpeedMPH,Gust SpeedMPH,PrecipitationIn,Events,Conditions,WindDirDegrees,DateUTC
12:20 AM,87.8,32.0,14,29.74,-9999.0,West,10.4,-,N/A,,Clear,270,2013-08-29 21:20:00
12:50 AM,87.8,32.0,14,29.74,-9999.0,WNW,9.2,-,N/A,,Clear,290,2013-08-29 21:50:00
1:20 AM,80.6,37.4,21,29.74,-9999.0,ESE,5.8,-,N/A,,Clear,120,2013-08-29 22:20:00
1:50 AM,77.0,39.2,26,29.74,-9999.0,ESE,9.2,-,N/A,,Clear,110,2013-08-29 22:50:00
2:20 AM,78.8,37.4,23,29.74,-9999.0,East,4.6,-,N/A,,Clear,90,2013-08-29 23:20:00
2:50 AM,80.6,37.4,21,29.74,-9999.0,East,8.1,-,N/A,,Clear,80,2013-08-29 23:50:00
3:00 AM,80,35,11,29.56,12,East,8.1,,,,,80,2013-08-30 00:00:00
3:20 AM,77.0,39.2,26,29.74,-9999.0,SE,4.6,-,N/A,,Clear,130,2013-08-30 00:20:00
3:50 AM,73.4,39.2,29,29.74,-9999.0,Variable,2.3,-,N/A,,Clear,0,2013-08-30 00:50:00
4:20 AM,73.4,37.4,27,29.74,-9999.0,NW,3.5,-,N/A,,Clear,320,2013-08-30 01:20:00
4:50 AM,71.6,35.6,27,29.74,-9999.0,West,4.6,-,N/A,,Clear,270,2013-08-30 01:50:00
5:20 AM,69.8,35.6,28,29.74,-9999.0,West,6.9,-,N/A,,Clear,280,2013-08-30 02:20:00
5:50 AM,71.6,35.6,27,29.74,-9999.0,WNW,6.9,-,N/A,,Clear,290,2013-08-30 02:50:00
6:20 AM,71.6,39.2,31,29.77,-9999.0,ESE,5.8,-,N/A,,Clear,120,2013-08-30 03:20:00
6:50 AM,71.6,42.8,35,29.77,-9999.0,Calm,Calm,-,N/A,,Clear,0,2013-08-30 03:50:00
7:20 AM,78.8,39.2,24,29.77,-9999.0,Variable,1.2,-,N/A,,Clear,0,2013-08-30 04:20:00
7:50 AM,80.6,39.2,23,29.77,-9999.0,Variable,1.2,-,N/A,,Clear,0,2013-08-30 04:50:00
8:20 AM,84.2,37.4,19,29.77,-9999.0,Variable,2.3,-,N/A,,Clear,0,2013-08-30 05:20:00
8:50 AM,84.2,41.0,22,29.80,-9999.0,ESE,5.8,-,N/A,,Clear,110,2013-08-30 05:50:00
9:00 AM,85,40,11,29.63,6,ESE,5.8,,,,,110,2013-08-30 06:00:00
9:20 AM,87.8,42.8,21,29.80,-9999.0,East,4.6,-,N/A,,Clear,100,2013-08-30 06:20:00
9:50 AM,89.6,42.8,20,29.80,-9999.0,ENE,5.8,-,N/A,,Clear,70,2013-08-30 06:50:00
10:20 AM,91.4,41.0,17,29.77,-9999.0,NNE,4.6,-,N/A,,Clear,30,2013-08-30 07:20:00
10:50 AM,93.2,37.4,14,29.77,-9999.0,North,6.9,-,N/A,,Clear,10,2013-08-30 07:50:00
11:20 AM,93.2,39.2,15,29.77,-9999.0,East,8.1,-,N/A,,Clear,80,2013-08-30 08:20:00
11:50 AM,96.8,39.2,14,29.74,-9999.0,NE,5.8,-,N/A,,Clear,50,2013-08-30 08:50:00
12:20 PM,96.8,39.2,14,29.74,-9999.0,East,8.1,-,N/A,,Clear,80,2013-08-30 09:20:00
12:50 PM,98.6,39.2,13,29.74,-9999.0,Variable,4.6,-,N/A,,Clear,0,2013-08-30 09:50:00
1:20 PM,102.2,35.6,10,29.74,-9999.0,Variable,4.6,-,N/A,,Clear,0,2013-08-30 10:20:00
1:50 PM,104.0,32.0,8,29.71,-9999.0,Variable,6.9,-,N/A,,Clear,0,2013-08-30 10:50:00
2:20 PM,102.2,33.8,9,29.71,-9999.0,ESE,6.9,-,N/A,,Clear,110,2013-08-30 11:20:00
2:50 PM,102.2,33.8,9,29.68,-9999.0,ESE,10.4,-,N/A,,Clear,110,2013-08-30 11:50:00
3:00 PM,102,32,4,29.52,6,ESE,10.4,,,,,110,2013-08-30 12:00:00
3:20 PM,102.2,33.8,9,29.68,-9999.0,Variable,6.9,-,N/A,,Clear,0,2013-08-30 12:20:00
3:50 PM,102.2,35.6,10,29.68,-9999.0,SE,9.2,-,N/A,,Clear,130,2013-08-30 12:50:00
4:20 PM,102.2,35.6,10,29.68,-9999.0,SSW,6.9,-,N/A,,Clear,200,2013-08-30 13:20:00
4:50 PM,102.2,35.6,10,29.68,-9999.0,South,10.4,-,N/A,,Clear,180,2013-08-30 13:50:00
5:20 PM,100.4,37.4,11,29.68,-9999.0,SSE,11.5,-,N/A,,Clear,160,2013-08-30 14:20:00
5:50 PM,98.6,37.4,12,29.68,-9999.0,South,11.5,-,N/A,,Clear,180,2013-08-30 14:50:00
6:20 PM,96.8,37.4,13,29.71,-9999.0,South,11.5,-,N/A,,Clear,170,2013-08-30 15:20:00
6:50 PM,93.2,37.4,14,29.71,-9999.0,South,10.4,-,N/A,,Clear,170,2013-08-30 15:50:00
7:20 PM,93.2,39.2,15,29.71,-9999.0,South,9.2,-,N/A,,Clear,180,2013-08-30 16:20:00
7:50 PM,91.4,39.2,16,29.71,-9999.0,South,8.1,-,N/A,,Clear,190,2013-08-30 16:50:00
8:20 PM,89.6,39.2,17,29.74,-9999.0,South,9.2,-,N/A,,Clear,190,2013-08-30 17:20:00
8:50 PM,91.4,39.2,16,29.74,-9999.0,West,10.4,-,N/A,,Clear,260,2013-08-30 17:50:00
9:00 PM,91,37,8,29.58,12,West,10.4,,,,,260,2013-08-30 18:00:00
9:20 PM,91.4,39.2,16,29.74,-9999.0,SSW,11.5,-,N/A,,Clear,210,2013-08-30 18:20:00
9:50 PM,86.0,39.2,19,29.74,-9999.0,West,3.5,-,N/A,,Clear,260,2013-08-30 18:50:00
10:20 PM,87.8,41.0,19,29.74,-9999.0,South,6.9,-,N/A,,Clear,190,2013-08-30 19:20:00
10:50 PM,87.8,41.0,19,29.74,-9999.0,SW,6.9,-,N/A,,Clear,220,2013-08-30 19:50:00
11:20 PM,84.2,39.2,20,29.77,-9999.0,SW,3.5,-,N/A,,Clear,220,2013-08-30 20:20:00
11:50 PM,84.2,37.4,19,29.77,-9999.0,Variable,3.5,-,N/A,,Clear,0,2013-08-30 20:50:00